Location: Davayat
(45.9471°N, 3.1105°E)
Time: 18:09:33
(UTC+00:00)

Cosmos 1680 Rocket - Pass Details

Date: 01 December 2020
Orbit: 760 x 781 km, 74.1° (Epoch: 17 January)

Event Time Altitude Azimuth Distance (km) Brightness Sun altitude
Rises 17:42:21 0° 173° (S) 3,229 6.8 -16.5°
Reaches altitude 10° 17:44:54 10° 164° (SSE) 2,310 6.0 -16.9°
Maximum altitude 17:49:34 33° 101° (E) 1,277 4.2 -17.7°
Enters shadow 17:50:24 32° 82° (E) 1,325 4.2 -17.9°
